Date,TemperatureHighF,TemperatureAvgF,TemperatureLowF,DewpointHighF,DewpointAvgF,DewpointLowF,HumidityHigh,HumidityAvg,HumidityLow,PressureMaxIn,PressureMinIn,WindSpeedMaxMPH,WindSpeedAvgMPH,GustSpeedMaxMPH,PrecipitationSumIn
2013-1-1,63,50,41,41,33,21,82,55,33,17.72,17.72,4,0,6,0.00
2013-1-2,64,52,41,33,25,17,59,37,25,17.72,17.72,4,1,7,0.00
2013-1-3,67,51,37,45,30,22,75,47,23,17.72,17.72,4,0,7,0.00
2013-1-4,64,51,40,34,23,17,68,35,24,17.72,17.72,5,0,6,0.00
2013-1-5,63,50,40,40,31,19,76,50,30,17.72,17.72,4,0,6,0.00
2013-1-6,62,50,44,55,44,37,98,83,55,17.72,17.72,7,1,10,0.08
2013-1-7,65,51,41,44,38,27,98,65,24,17.72,17.72,6,2,8,0.00
2013-1-8,67,52,41,48,42,34,95,70,41,17.72,17.72,4,0,5,0.00
2013-1-9,55,51,0,53,50,45,97,92,88,17.72,0.00,4,0,6,0.00
2013-1-10,58,51,44,51,38,21,98,63,38,17.72,17.72,8,3,14,0.00
2013-1-11,54,45,34,31,25,19,74,46,30,17.72,17.72,8,2,11,0.00
2013-1-12,56,44,34,31,25,18,70,49,30,17.72,17.72,4,0,6,0.00
2013-1-13,57,44,34,35,26,21,74,51,28,17.72,17.72,4,0,7,0.00
2013-1-14,55,44,35,28,12,5,71,28,18,17.72,17.72,8,2,11,0.00
2013-1-15,58,46,34,32,20,8,63,36,26,17.72,17.72,6,1,7,0.00
2013-1-16,66,52,38,40,32,26,76,50,31,17.72,17.72,4,0,6,0.00
2013-1-17,76,60,45,38,27,20,48,30,20,17.72,17.72,4,0,6,0.00
2013-1-18,76,60,47,38,26,18,38,28,20,17.72,17.72,4,0,4,0.00
2013-1-19,76,62,50,39,26,19,41,26,18,17.72,17.72,4,0,6,0.00
2013-1-20,77,61,49,38,25,16,38,26,18,17.72,17.72,4,0,6,0.00
2013-1-21,77,62,49,34,24,18,37,24,15,17.72,17.72,4,0,5,0.00
2013-1-22,80,62,48,37,23,16,32,23,15,17.72,17.72,4,0,5,0.00
2013-1-23,79,65,57,50,32,22,73,31,21,17.72,17.72,5,1,8,0.00
2013-1-24,71,60,52,61,54,49,98,81,51,17.72,17.72,4,0,8,0.35
2013-1-25,67,60,57,63,59,56,98,97,83,17.72,17.72,3,0,4,0.28
2013-1-26,68,60,55,64,58,54,98,94,75,17.72,17.72,4,0,6,0.04
2013-1-27,62,54,47,56,49,42,98,84,52,17.72,17.72,6,1,9,0.00
2013-1-28,60,49,40,47,38,30,98,70,35,17.72,17.72,6,1,10,0.00
2013-1-29,61,48,38,41,38,33,88,68,37,17.72,17.72,4,0,7,0.00
2013-1-30,68,54,41,45,38,31,93,60,33,17.72,17.72,4,1,6,0.00
2013-1-31,76,59,45,46,40,36,82,52,25,17.72,17.72,4,0,6,0.00